KAL2589 RKSS-RJFF

Flight info

Callsign KAL2589
Flight time 1h 0m
Altitude 31000
Route OSPOT2T OSPOT Y782 TGU Y781 BESNA Y209 SARUP
Aircraft MD88/M-SDFGIRWY/C

Departure

Time 2026-05-09 04:06
Airport Gimpo International Airport (RKSS)

Arrival

Time 2026-05-09 05:06
Airport Fukuoka Airport (RJFF)
Time Latitude Longitude Altitude Speed Heading
2026-05-09 03:37 37.56612 126.79932 62 ft 0 kts 166°
2026-05-09 03:54 37.56622 126.79929 61 ft 2 kts 166°
2026-05-09 03:54 37.56637 126.79924 61 ft 2 kts 166°
2026-05-09 03:55 37.56651 126.79919 61 ft 2 kts 167°
2026-05-09 03:55 37.56666 126.79915 61 ft 2 kts 166°
2026-05-09 03:55 37.56681 126.79910 61 ft 2 kts 166°
2026-05-09 03:55 37.56696 126.79911 61 ft 2 kts 204°
2026-05-09 03:56 37.56704 126.79917 61 ft 0 kts 223°
2026-05-09 03:56 37.56709 126.79924 61 ft 0 kts 225°
2026-05-09 03:59 37.56708 126.79923 61 ft 1 kts 225°
2026-05-09 04:00 37.56695 126.79906 61 ft 4 kts 225°
2026-05-09 04:00 37.56665 126.79868 60 ft 8 kts 224°
2026-05-09 04:00 37.56611 126.79802 57 ft 13 kts 224°
2026-05-09 04:00 37.56530 126.79701 52 ft 19 kts 225°
2026-05-09 04:01 37.56429 126.79575 53 ft 20 kts 225°
2026-05-09 04:01 37.56345 126.79470 62 ft 12 kts 224°
2026-05-09 04:01 37.56302 126.79416 66 ft 6 kts 225°
2026-05-09 04:01 37.56276 126.79384 67 ft 5 kts 226°
2026-05-09 04:02 37.56240 126.79336 67 ft 9 kts 226°
2026-05-09 04:02 37.56170 126.79279 67 ft 14 kts 178°
2026-05-09 04:02 37.56078 126.79369 69 ft 19 kts 134°
2026-05-09 04:02 37.55987 126.79491 72 ft 18 kts 133°
2026-05-09 04:03 37.55897 126.79599 75 ft 17 kts 140°
2026-05-09 04:03 37.55804 126.79714 72 ft 20 kts 134°
2026-05-09 04:03 37.55696 126.79853 67 ft 23 kts 134°
2026-05-09 04:03 37.55572 126.80010 59 ft 27 kts 137°
2026-05-09 04:04 37.55427 126.80187 55 ft 29 kts 135°
2026-05-09 04:04 37.55278 126.80376 53 ft 31 kts 135°
2026-05-09 04:04 37.55120 126.80572 49 ft 33 kts 135°
2026-05-09 04:04 37.54960 126.80773 48 ft 30 kts 135°
2026-05-09 04:05 37.54857 126.80787 49 ft 15 kts 224°
2026-05-09 04:05 37.54803 126.80685 52 ft 15 kts 287°
2026-05-09 04:05 37.54901 126.80551 52 ft 31 kts 314°
2026-05-09 04:05 37.55193 126.80184 57 ft 87 kts 315°
2026-05-09 04:06 37.55750 126.79483 67 ft 136 kts 315°
2026-05-09 04:06 37.56499 126.78542 273 ft 160 kts 316°
2026-05-09 04:06 37.57356 126.77679 848 ft 160 kts 330°
2026-05-09 04:06 37.58448 126.77330 1310 ft 167 kts 349°
2026-05-09 04:07 37.59544 126.77047 1916 ft 161 kts 340°
2026-05-09 04:07 37.60598 126.76557 2413 ft 162 kts 332°
2026-05-09 04:07 37.61573 126.75845 2954 ft 160 kts 322°
2026-05-09 04:07 37.62412 126.74938 3421 ft 161 kts 312°
2026-05-09 04:08 37.63148 126.73663 3332 ft 200 kts 291°
2026-05-09 04:08 37.63483 126.71873 3593 ft 223 kts 277°
2026-05-09 04:08 37.63470 126.69835 4039 ft 240 kts 261°
2026-05-09 04:08 37.62810 126.67875 4608 ft 252 kts 234°
2026-05-09 04:09 37.61712 126.66170 5178 ft 261 kts 224°
2026-05-09 04:09 37.60099 126.65194 6111 ft 259 kts 194°
2026-05-09 04:09 37.58254 126.65218 6548 ft 279 kts 166°
2026-05-09 04:09 37.56473 126.66264 7266 ft 284 kts 155°
2026-05-09 04:10 37.54770 126.67525 7863 ft 292 kts 155°
2026-05-09 04:10 37.53040 126.68848 8586 ft 294 kts 151°
2026-05-09 04:10 37.51312 126.70267 9235 ft 298 kts 151°
2026-05-09 04:10 37.49589 126.71719 9892 ft 302 kts 150°
2026-05-09 04:11 37.47841 126.73199 10344 ft 315 kts 151°
2026-05-09 04:11 37.45840 126.74557 10368 ft 339 kts 157°
2026-05-09 04:11 37.43623 126.75819 10440 ft 361 kts 160°
2026-05-09 04:11 37.41263 126.77096 10681 ft 378 kts 158°
2026-05-09 04:12 37.38852 126.78565 11108 ft 389 kts 155°
2026-05-09 04:12 37.36500 126.80229 11611 ft 397 kts 152°
2026-05-09 04:12 37.34140 126.82118 12146 ft 403 kts 149°
2026-05-09 04:12 37.31822 126.84145 12669 ft 408 kts 147°
2026-05-09 04:13 37.29542 126.86252 13184 ft 413 kts 146°
2026-05-09 04:13 37.27227 126.88471 13700 ft 418 kts 145°
2026-05-09 04:13 37.24953 126.90706 14194 ft 422 kts 144°
2026-05-09 04:13 37.22651 126.93008 14680 ft 426 kts 144°
2026-05-09 04:14 37.20343 126.95346 15150 ft 430 kts 144°
2026-05-09 04:14 37.18025 126.97720 15613 ft 433 kts 144°
2026-05-09 04:14 37.15683 127.00140 16062 ft 437 kts 144°
2026-05-09 04:14 37.13326 127.02598 16509 ft 440 kts 144°
2026-05-09 04:15 37.10998 127.05045 16930 ft 443 kts 144°
2026-05-09 04:15 37.08619 127.07558 17394 ft 445 kts 143°
2026-05-09 04:15 37.06235 127.10097 17849 ft 447 kts 143°
2026-05-09 04:15 37.03858 127.12650 18275 ft 449 kts 143°
2026-05-09 04:16 37.01486 127.15215 18692 ft 451 kts 142°
2026-05-09 04:16 36.99137 127.17773 19095 ft 453 kts 142°
2026-05-09 04:16 36.96742 127.20401 19489 ft 455 kts 142°
2026-05-09 04:16 36.94354 127.23040 19852 ft 457 kts 141°
2026-05-09 04:17 36.91985 127.25678 20176 ft 460 kts 141°
2026-05-09 04:17 36.89619 127.28327 20491 ft 463 kts 141°
2026-05-09 04:17 36.87214 127.31038 20807 ft 465 kts 141°
2026-05-09 04:17 36.84799 127.33775 21106 ft 468 kts 141°
2026-05-09 04:18 36.82438 127.36526 21396 ft 472 kts 139°
2026-05-09 04:18 36.80085 127.39421 21679 ft 474 kts 139°
2026-05-09 04:18 36.77761 127.42287 21955 ft 476 kts 139°
2026-05-09 04:18 36.75388 127.45216 22236 ft 478 kts 139°
2026-05-09 04:19 36.73047 127.48107 22480 ft 481 kts 139°
2026-05-09 04:19 36.70671 127.51034 22737 ft 483 kts 139°
2026-05-09 04:19 36.68267 127.53952 22962 ft 485 kts 139°
2026-05-09 04:19 36.65857 127.56883 23199 ft 487 kts 139°
2026-05-09 04:20 36.63420 127.59852 23427 ft 489 kts 139°
2026-05-09 04:20 36.60966 127.62842 23662 ft 491 kts 139°
2026-05-09 04:20 36.58528 127.65816 23883 ft 492 kts 140°
2026-05-09 04:20 36.56030 127.68862 24074 ft 494 kts 140°
2026-05-09 04:21 36.53573 127.71860 24272 ft 495 kts 140°
2026-05-09 04:21 36.51095 127.74883 24439 ft 497 kts 140°
2026-05-09 04:21 36.46166 127.80901 24762 ft 500 kts 140°
2026-05-09 04:22 36.43656 127.83939 24919 ft 501 kts 140°
2026-05-09 04:22 36.41167 127.86940 25071 ft 503 kts 140°
2026-05-09 04:22 36.38665 127.89965 25219 ft 504 kts 140°
2026-05-09 04:22 36.36163 127.92996 25360 ft 505 kts 140°
2026-05-09 04:23 36.33631 127.96063 25484 ft 506 kts 140°
2026-05-09 04:23 36.31074 127.99165 25586 ft 508 kts 140°
2026-05-09 04:23 36.28558 128.02217 25693 ft 509 kts 140°
2026-05-09 04:23 36.26015 128.05261 25807 ft 509 kts 141°
2026-05-09 04:24 36.23472 128.08287 25882 ft 511 kts 141°
2026-05-09 04:24 36.20887 128.11366 25967 ft 512 kts 140°
2026-05-09 04:24 36.18333 128.14412 26069 ft 511 kts 140°
2026-05-09 04:24 36.15778 128.17462 26159 ft 511 kts 140°
2026-05-09 04:25 36.13229 128.20503 26228 ft 512 kts 140°
2026-05-09 04:25 36.10655 128.23576 26280 ft 513 kts 140°
2026-05-09 04:25 36.08087 128.26636 26327 ft 514 kts 141°
2026-05-09 04:25 36.05529 128.29672 26409 ft 515 kts 140°
2026-05-09 04:26 36.02961 128.32736 26452 ft 516 kts 140°
2026-05-09 04:26 36.00352 128.35858 26529 ft 516 kts 140°
2026-05-09 04:26 35.97759 128.38963 26592 ft 516 kts 140°
2026-05-09 04:26 35.95167 128.42068 26631 ft 517 kts 140°
2026-05-09 04:27 35.92580 128.45169 26680 ft 518 kts 140°
2026-05-09 04:27 35.90009 128.48251 26728 ft 518 kts 140°
2026-05-09 04:27 35.87408 128.51372 26782 ft 519 kts 140°
2026-05-09 04:27 35.84768 128.54425 26804 ft 515 kts 146°
2026-05-09 04:28 35.81805 128.56827 26848 ft 505 kts 158°
2026-05-09 04:28 35.78587 128.58414 26876 ft 494 kts 170°
2026-05-09 04:28 35.75238 128.59140 26919 ft 483 kts 182°
2026-05-09 04:28 35.71937 128.58987 26940 ft 471 kts 195°
2026-05-09 04:29 35.68720 128.58299 26998 ft 471 kts 194°
2026-05-09 04:29 35.65485 128.57819 27059 ft 473 kts 192°
2026-05-09 04:29 35.62190 128.57436 27097 ft 474 kts 191°
2026-05-09 04:29 35.58876 128.57098 27133 ft 475 kts 191°
2026-05-09 04:30 35.55580 128.56784 27191 ft 475 kts 190°
2026-05-09 04:30 35.52327 128.56516 27263 ft 477 kts 187°
2026-05-09 04:30 35.48951 128.56757 27306 ft 486 kts 178°
2026-05-09 04:30 35.45626 128.57648 27363 ft 494 kts 169°
2026-05-09 04:31 35.42401 128.59169 27391 ft 502 kts 160°
2026-05-09 04:31 35.39314 128.61122 27448 ft 504 kts 159°
2026-05-09 04:31 35.36199 128.63042 27521 ft 501 kts 159°
2026-05-09 04:31 35.33095 128.64909 27836 ft 495 kts 160°
2026-05-09 04:32 35.29998 128.66756 28219 ft 488 kts 161°
2026-05-09 04:32 35.26982 128.68545 28589 ft 483 kts 161°
2026-05-09 04:32 35.24000 128.70311 28958 ft 477 kts 161°
2026-05-09 04:32 35.21035 128.72064 29132 ft 477 kts 161°
2026-05-09 04:33 35.18036 128.73839 29148 ft 477 kts 161°
2026-05-09 04:33 35.12041 128.77383 29153 ft 477 kts 162°
2026-05-09 04:34 35.06051 128.80884 29153 ft 478 kts 161°
2026-05-09 04:34 35.00133 128.84521 29157 ft 482 kts 157°
2026-05-09 04:35 34.94414 128.88812 29158 ft 483 kts 154°
2026-05-09 04:35 34.88708 128.93131 29150 ft 481 kts 153°
2026-05-09 04:36 34.83043 128.97392 29138 ft 484 kts 153°
2026-05-09 04:36 34.77302 129.01708 29033 ft 483 kts 153°
2026-05-09 04:37 34.71594 129.05997 28922 ft 482 kts 153°
2026-05-09 04:37 34.65879 129.10292 28821 ft 483 kts 153°
2026-05-09 04:38 34.60155 129.14571 28515 ft 485 kts 153°
2026-05-09 04:38 34.57285 129.16692 28185 ft 485 kts 153°
2026-05-09 04:38 34.54419 129.18816 27864 ft 484 kts 153°
2026-05-09 04:38 34.51556 129.20937 27467 ft 483 kts 152°
2026-05-09 04:39 34.48706 129.23041 27076 ft 483 kts 152°
2026-05-09 04:39 34.45851 129.25154 26683 ft 482 kts 152°
2026-05-09 04:39 34.43001 129.27266 26286 ft 482 kts 152°
2026-05-09 04:39 34.40139 129.29391 25753 ft 483 kts 152°
2026-05-09 04:40 34.37286 129.31509 25160 ft 483 kts 152°
2026-05-09 04:40 34.34438 129.33624 24571 ft 483 kts 152°
2026-05-09 04:40 34.31603 129.35731 23911 ft 484 kts 151°
2026-05-09 04:40 34.28764 129.37840 23173 ft 479 kts 151°
2026-05-09 04:41 34.25954 129.39929 22394 ft 477 kts 151°
2026-05-09 04:41 34.23099 129.42052 21618 ft 476 kts 151°
2026-05-09 04:41 34.20311 129.44124 20986 ft 469 kts 150°
2026-05-09 04:41 34.17574 129.46161 20541 ft 461 kts 150°
2026-05-09 04:42 34.14870 129.48171 20074 ft 454 kts 150°
2026-05-09 04:42 34.12209 129.50150 19601 ft 449 kts 150°
2026-05-09 04:42 34.09584 129.52103 19129 ft 445 kts 150°
2026-05-09 04:42 34.06945 129.54065 18665 ft 441 kts 150°
2026-05-09 04:43 34.04367 129.55980 18535 ft 429 kts 150°
2026-05-09 04:43 34.01860 129.57822 18514 ft 418 kts 150°
2026-05-09 04:43 33.99407 129.59624 18440 ft 409 kts 150°
2026-05-09 04:43 33.97027 129.61374 18304 ft 404 kts 150°
2026-05-09 04:44 33.94637 129.63127 18130 ft 401 kts 150°
2026-05-09 04:44 33.92291 129.64847 17788 ft 389 kts 150°
2026-05-09 04:44 33.89997 129.66527 16604 ft 381 kts 151°
2026-05-09 04:44 33.87839 129.68112 16223 ft 354 kts 151°
2026-05-09 04:45 33.85778 129.69626 15667 ft 337 kts 149°
2026-05-09 04:45 33.84081 129.71442 14987 ft 329 kts 127°
2026-05-09 04:45 33.83107 129.73853 14533 ft 314 kts 103°
2026-05-09 04:45 33.82911 129.76376 14014 ft 302 kts 91°
2026-05-09 04:46 33.82830 129.78879 13440 ft 295 kts 93°
2026-05-09 04:46 33.82834 129.81294 12835 ft 289 kts 82°
2026-05-09 04:46 33.83306 129.83600 12216 ft 283 kts 68°
2026-05-09 04:46 33.83911 129.85828 11568 ft 280 kts 83°
2026-05-09 04:47 33.83850 129.88129 10909 ft 277 kts 104°
2026-05-09 04:47 33.83122 129.90231 10248 ft 274 kts 125°
2026-05-09 04:47 33.82062 129.92113 9608 ft 271 kts 122°
2026-05-09 04:47 33.81075 129.94070 9160 ft 273 kts 120°
2026-05-09 04:48 33.80152 129.96039 9012 ft 271 kts 118°
2026-05-09 04:48 33.79259 129.98039 8857 ft 270 kts 117°
2026-05-09 04:48 33.78400 130.00021 8699 ft 268 kts 117°
2026-05-09 04:48 33.77549 130.02033 8528 ft 267 kts 116°
2026-05-09 04:49 33.76723 130.04004 8364 ft 266 kts 116°
2026-05-09 04:49 33.75890 130.06014 8196 ft 266 kts 116°
2026-05-09 04:49 33.75074 130.07991 8049 ft 269 kts 116°
2026-05-09 04:49 33.74235 130.10036 8040 ft 271 kts 116°
2026-05-09 04:50 33.73403 130.12065 8023 ft 270 kts 116°
2026-05-09 04:50 33.72572 130.14099 8018 ft 269 kts 116°
2026-05-09 04:50 33.71747 130.16118 8016 ft 268 kts 115°
2026-05-09 04:50 33.70923 130.18140 8014 ft 267 kts 116°
2026-05-09 04:51 33.70097 130.20140 8011 ft 267 kts 120°
2026-05-09 04:51 33.68999 130.21883 7971 ft 261 kts 136°
2026-05-09 04:51 33.67573 130.23181 7918 ft 253 kts 148°
2026-05-09 04:51 33.66111 130.24330 7808 ft 249 kts 147°
2026-05-09 04:52 33.64679 130.25487 7664 ft 247 kts 146°
2026-05-09 04:52 33.63275 130.26639 7504 ft 245 kts 146°
2026-05-09 04:52 33.61868 130.27805 7327 ft 244 kts 146°
2026-05-09 04:52 33.60484 130.28960 7151 ft 243 kts 146°
2026-05-09 04:53 33.59091 130.30127 6971 ft 243 kts 146°
2026-05-09 04:53 33.57720 130.31280 6802 ft 242 kts 146°
2026-05-09 04:53 33.56338 130.32445 6648 ft 241 kts 146°
2026-05-09 04:53 33.54971 130.33513 6480 ft 234 kts 148°
2026-05-09 04:54 33.53594 130.34569 6121 ft 236 kts 148°
2026-05-09 04:54 33.52176 130.35658 5672 ft 247 kts 148°
2026-05-09 04:54 33.50748 130.36757 5565 ft 244 kts 148°
2026-05-09 04:54 33.49317 130.37859 5444 ft 242 kts 148°
2026-05-09 04:55 33.47918 130.38936 5309 ft 240 kts 148°
2026-05-09 04:55 33.46503 130.40027 5162 ft 239 kts 148°
2026-05-09 04:55 33.45105 130.41104 5021 ft 239 kts 148°
2026-05-09 04:55 33.43724 130.42168 5006 ft 238 kts 148°
2026-05-09 04:56 33.42345 130.43231 5072 ft 234 kts 148°
2026-05-09 04:56 33.40962 130.44296 5051 ft 236 kts 148°
2026-05-09 04:56 33.39600 130.45343 5007 ft 234 kts 148°
2026-05-09 04:56 33.38231 130.46397 5002 ft 233 kts 148°
2026-05-09 04:57 33.36861 130.47449 5002 ft 233 kts 149°
2026-05-09 04:57 33.35512 130.48485 5002 ft 233 kts 149°
2026-05-09 04:57 33.34149 130.49533 5001 ft 232 kts 149°
2026-05-09 04:57 33.32785 130.50580 5001 ft 232 kts 149°
2026-05-09 04:58 33.31428 130.51622 5001 ft 231 kts 149°
2026-05-09 04:58 33.30165 130.52760 4967 ft 233 kts 131°
2026-05-09 04:58 33.29498 130.54521 4908 ft 236 kts 98°
2026-05-09 04:58 33.29668 130.56436 4688 ft 233 kts 68°
2026-05-09 04:59 33.30520 130.58060 4334 ft 231 kts 55°
2026-05-09 04:59 33.31401 130.59671 4028 ft 232 kts 56°
2026-05-09 04:59 33.32463 130.61073 3978 ft 227 kts 28°
2026-05-09 04:59 33.33928 130.61565 4003 ft 221 kts 356°
2026-05-09 05:00 33.35352 130.61038 4003 ft 214 kts 325°
2026-05-09 05:00 33.36624 130.60100 4014 ft 215 kts 326°
2026-05-09 05:00 33.37910 130.59181 4001 ft 214 kts 327°
2026-05-09 05:00 33.39197 130.58281 4020 ft 213 kts 328°
2026-05-09 05:01 33.40487 130.57390 3871 ft 215 kts 328°
2026-05-09 05:01 33.41777 130.56506 3595 ft 214 kts 329°
2026-05-09 05:01 33.43047 130.55641 3316 ft 208 kts 329°
2026-05-09 05:01 33.44247 130.54825 3092 ft 187 kts 329°
2026-05-09 05:02 33.45345 130.54080 2794 ft 176 kts 329°
2026-05-09 05:02 33.46390 130.53371 2535 ft 169 kts 329°
2026-05-09 05:02 33.47354 130.52718 2290 ft 153 kts 329°
2026-05-09 05:02 33.48236 130.52121 2055 ft 140 kts 329°
2026-05-09 05:03 33.49065 130.51561 1848 ft 132 kts 329°
2026-05-09 05:03 33.49848 130.51031 1683 ft 129 kts 329°
2026-05-09 05:03 33.50627 130.50499 1533 ft 128 kts 329°
2026-05-09 05:03 33.51399 130.49970 1386 ft 128 kts 329°
2026-05-09 05:04 33.52169 130.49438 1236 ft 128 kts 329°
2026-05-09 05:04 33.52935 130.48895 1083 ft 130 kts 329°
2026-05-09 05:04 33.53728 130.48351 948 ft 129 kts 329°
2026-05-09 05:04 33.54504 130.47835 763 ft 129 kts 331°
2026-05-09 05:05 33.55280 130.47319 545 ft 125 kts 330°
2026-05-09 05:05 33.56046 130.46797 390 ft 127 kts 330°
2026-05-09 05:05 33.56817 130.46266 230 ft 127 kts 330°
2026-05-09 05:05 33.57578 130.45754 65 ft 123 kts 330°
2026-05-09 05:06 33.58233 130.45306 38 ft 87 kts 330°
2026-05-09 05:06 33.58701 130.45000 8 ft 67 kts 330°
2026-05-09 05:06 33.59006 130.44789 15 ft 43 kts 327°
2026-05-09 05:06 33.59179 130.44557 17 ft 26 kts 294°
2026-05-09 05:07 33.59155 130.44469 18 ft 2 kts 170°
2026-05-09 05:07 33.59143 130.44473 18 ft 0 kts 160°
2026-05-09 05:07 33.59121 130.44485 18 ft 7 kts 153°
2026-05-09 05:07 33.59049 130.44533 18 ft 16 kts 149°
2026-05-09 05:08 33.58944 130.44525 29 ft 16 kts 223°
2026-05-09 05:08 33.58846 130.44449 36 ft 18 kts 160°
2026-05-09 05:08 33.58759 130.44507 42 ft 9 kts 149°
2026-05-09 05:08 33.58728 130.44528 45 ft 0 kts 149°
2026-05-09 05:09 33.58727 130.44528 45 ft 0 kts 149°
2026-05-09 05:09 33.58722 130.44533 45 ft 4 kts 149°
2026-05-09 05:09 33.58689 130.44556 47 ft 2 kts 160°
2026-05-09 05:09 33.58679 130.44554 47 ft 1 kts 196°
2026-05-09 05:10 33.58653 130.44524 46 ft 9 kts 236°
2026-05-09 05:10 33.58630 130.44479 42 ft 2 kts 240°
2026-05-09 05:10 33.58627 130.44470 41 ft 0 kts 240°